Weather History for KFQD - May, 2013

Change the Weather History Date:

Thursday, May 23, 2013

  Actual Average (KAVL) Record (KAVL)
Temperature  
Mean Temperature 70 °F 65 °F  
Max Temperature 77 °F 76 °F 90 °F (1953)
Min Temperature 62 °F 53 °F 35 °F (2002)
Degree Days  
Heating Degree Days 0 2  
Month to date heating degree days 95  
Since 1 July heating degree days 4167  
Cooling Degree Days 4 2  
Month to date cooling degree days 30  
Year to date cooling degree days 38  
Growing Degree Days 20 (Base 50)    
Moisture  
Dew Point 64 °F    
Average Humidity 86    
Maximum Humidity 100    
Minimum Humidity 64    
Precipitation  
Precipitation 0.43 in 0.12 in 2.29 in (1913)
Month to date precipitation 2.67  
Year to date precipitation 17.26  
Snow  
Snow 0.00 in 0.00 in 0.00 in ()
Month to date snowfall 0.0  
Since 1 July snowfall 9.9  
Snow Depth -    
Sea Level Pressure  
Sea Level Pressure 29.94 in    
Wind  
Wind Speed 2 mph (SW)    
Max Wind Speed 12 mph    
Max Gust Speed 24 mph    
Visibility 9 miles    
Events Rain , Thunderstorm    
T = Trace of Precipitation, MM = Missing Value Source: NWS Daily Summary

Daily Weather History Graph

Daily Weather History Graph

Search for Another Location

Airport or City:

Trip Planner

Search our weather history database for the weather conditions in past years. The results will help you decide how hot, cold, wet, or windy it might be!

Date:

Astronomy

May. 23, 2013 Rise Set
Actual Time 6:17 AM EDT 8:31 PM EDT
Civil Twilight 5:48 AM EDT 9:00 PM EDT
Nautical Twilight 5:13 AM EDT 9:36 PM EDT
Astronomical Twilight 4:35 AM EDT 10:14 PM EDT
Moon 7:05 PM EDT (5/23) 4:57 AM EDT (5/23)
Length of Visible Light 15h 11m
Length of Day
14h 13m
Waxing Gibbous, 97% of the Moon is Illuminated
May 23
Waxing Gibbous
May 25
Full
May 31
Last Quarter
Jun 8
New
Jun 16
First Quarter

Hourly Weather History & Observations

Time (EDT) Temp. Dew Point Humidity Pressure Visibility Wind Dir Wind Speed Gust Speed Precip Events Conditions
12:15 AM 63.5 °F 63.1 °F 99% 29.99 in 7.0 mi South 4.6 mph - 0.07 in Rain , Thunderstorm Thunderstorms and Rain
12:35 AM 63.9 °F 63.5 °F 99% 29.98 in 5.0 mi Calm Calm - 0.14 in Rain Rain
12:55 AM 63.5 °F 63.1 °F 99% 29.98 in 5.0 mi Calm Calm - 0.21 in Rain Light Rain
1:15 AM 63.1 °F 62.8 °F 99% 29.99 in 7.0 mi Calm Calm - 0.05 in Rain Light Rain
1:35 AM 63.1 °F 62.8 °F 99% 29.99 in 7.0 mi Calm Calm - 0.10 in   Overcast
1:55 AM 63.1 °F 63.0 °F 99% 29.99 in 7.0 mi Calm Calm - 0.14 in   Overcast
2:15 AM 63.1 °F 63.0 °F 99% 29.98 in 5.0 mi Calm Calm - 0.02 in   Overcast
2:35 AM 63.3 °F 63.0 °F 99% 29.97 in 5.0 mi Calm Calm - 0.05 in   Overcast
2:55 AM 63.1 °F 63.0 °F 99% 29.98 in 7.0 mi Calm Calm - 0.07 in Rain Light Rain
3:15 AM 63.3 °F 63.0 °F 99% 29.98 in 7.0 mi Calm Calm - N/A Rain Light Rain
3:35 AM 63.5 °F 63.0 °F 98% 29.98 in 5.0 mi Calm Calm - 0.01 in Rain Light Rain
3:55 AM 63.3 °F 63.0 °F 99% 29.97 in 7.0 mi Calm Calm - 0.01 in   Overcast
4:15 AM 63.1 °F 62.8 °F 99% 29.97 in 7.0 mi Calm Calm - N/A   Overcast
4:35 AM 63.1 °F 63.0 °F 99% 29.97 in 7.0 mi South 4.6 mph - N/A   Overcast
4:55 AM 63.0 °F 62.8 °F 99% 29.98 in 7.0 mi South 3.5 mph - N/A   Overcast
5:15 AM 63.0 °F 62.6 °F 99% 29.97 in 5.0 mi Calm Calm - N/A   Overcast
5:35 AM 63.0 °F 62.6 °F 99% 29.97 in 7.0 mi Calm Calm - N/A   Overcast
5:55 AM 63.1 °F 62.6 °F 98% 29.97 in 7.0 mi Calm Calm - N/A   Overcast
6:15 AM 63.0 °F 62.6 °F 99% 29.96 in 4.0 mi Calm Calm - N/A   Overcast
6:35 AM 62.8 °F 62.6 °F 99% 29.97 in 5.0 mi Calm Calm - N/A   Overcast
6:55 AM 62.8 °F 62.6 °F 99% 29.97 in 4.0 mi Calm Calm - N/A   Overcast
7:15 AM 62.6 °F 62.6 °F 100% 29.97 in 1.5 mi Calm Calm - N/A   Overcast
7:35 AM 62.8 °F 62.4 °F 99% 29.97 in 5.0 mi Calm Calm - N/A   Overcast
7:55 AM 63.0 °F 62.4 °F 98% 29.98 in 7.0 mi Calm Calm - N/A   Overcast
8:15 AM 63.0 °F 62.2 °F 97% 29.97 in 10.0 mi North - - N/A   Overcast
8:35 AM 63.5 °F 62.6 °F 97% 29.97 in 10.0 mi Calm Calm - N/A   Overcast
8:55 AM 63.5 °F 62.1 °F 95% 29.98 in 10.0 mi Calm Calm - N/A   Overcast
9:15 AM 64.0 °F 62.6 °F 95% 29.98 in 10.0 mi SW 3.5 mph - N/A   Overcast
9:35 AM 64.6 °F 63.0 °F 94% 29.98 in 10.0 mi Calm Calm - N/A   Overcast
9:55 AM 65.5 °F 63.7 °F 94% 29.97 in 10.0 mi Calm Calm - N/A   Overcast
10:15 AM 66.2 °F 63.7 °F 92% 29.97 in 10.0 mi Calm Calm - N/A   Overcast
10:35 AM 67.1 °F 64.0 °F 90% 29.97 in 10.0 mi SSW 3.5 mph - N/A   Overcast
10:55 AM 68.2 °F 63.5 °F 85% 29.97 in 10.0 mi SSW 5.8 mph - N/A   Overcast
11:15 AM 68.7 °F 64.4 °F 86% 29.97 in 10.0 mi NNW 3.5 mph - N/A   Overcast
11:35 AM 70.3 °F 64.9 °F 83% 29.97 in 10.0 mi North 3.5 mph - N/A   Overcast
11:55 AM 73.0 °F 65.7 °F 78% 29.97 in 10.0 mi WNW 5.8 mph - N/A   Overcast
12:15 PM 72.7 °F 65.3 °F 78% 29.96 in 10.0 mi SW 5.8 mph - N/A   Scattered Clouds
12:35 PM 73.6 °F 66.0 °F 77% 29.95 in 10.0 mi South 3.5 mph - N/A   Scattered Clouds
12:55 PM 75.7 °F 65.3 °F 70% 29.95 in 10.0 mi Calm Calm - N/A   Scattered Clouds
1:15 PM 75.2 °F 65.7 °F 72% 29.94 in 10.0 mi Calm Calm - N/A   Scattered Clouds
1:35 PM 75.0 °F 64.9 °F 71% 29.94 in 10.0 mi ESE 4.6 mph - N/A   Mostly Cloudy
1:55 PM 77.2 °F 64.2 °F 64% 29.93 in 10.0 mi Calm Calm - N/A   Scattered Clouds
2:15 PM 77.4 °F 65.8 °F 67% 29.92 in 10.0 mi Calm Calm - N/A   Scattered Clouds
2:35 PM 77.0 °F 64.8 °F 66% 29.91 in 10.0 mi SE 5.8 mph - N/A   Scattered Clouds
2:55 PM 75.4 °F 64.6 °F 69% 29.91 in 10.0 mi SSE 3.5 mph - N/A Rain Light Rain
3:15 PM 73.6 °F 66.7 °F 79% 29.91 in 10.0 mi SW 5.8 mph - N/A Rain , Thunderstorm Light Thunderstorms and Rain
3:35 PM 72.1 °F 67.1 °F 84% 29.91 in 10.0 mi SSW 11.5 mph 24.2 mph N/A Thunderstorm Overcast
3:55 PM 72.0 °F 64.4 °F 77% 29.91 in 10.0 mi SSW 9.2 mph 17.3 mph N/A Thunderstorm Mostly Cloudy
4:15 PM 70.2 °F 61.0 °F 73% 29.90 in 10.0 mi SSW 6.9 mph - N/A   Mostly Cloudy
4:35 PM 69.6 °F 61.2 °F 74% 29.90 in 10.0 mi SW 5.8 mph - N/A Thunderstorm Clear
4:55 PM 71.6 °F 61.9 °F 71% 29.88 in 10.0 mi SE 4.6 mph - N/A   Clear
5:15 PM 73.8 °F 63.7 °F 71% 29.89 in 10.0 mi Calm Calm - N/A   Clear
5:35 PM 74.7 °F 64.8 °F 71% 29.88 in 10.0 mi South 11.5 mph 17.3 mph N/A   Clear
5:55 PM 73.9 °F 64.0 °F 71% 29.87 in 10.0 mi South 11.5 mph - N/A   Clear
6:15 PM 75.6 °F 65.1 °F 70% 29.87 in 10.0 mi South 8.1 mph - N/A   Clear
6:35 PM 74.3 °F 64.8 °F 72% 29.87 in 10.0 mi Calm Calm - N/A   Mostly Cloudy
6:55 PM 74.8 °F 65.1 °F 72% 29.86 in 10.0 mi Calm Calm - N/A   Mostly Cloudy
7:15 PM 74.1 °F 65.5 °F 74% 29.87 in 10.0 mi Calm Calm - N/A   Mostly Cloudy
7:35 PM 73.4 °F 66.0 °F 78% 29.87 in 10.0 mi Calm Calm - N/A   Overcast
7:55 PM 73.9 °F 66.2 °F 77% 29.87 in 10.0 mi NNW 4.6 mph - N/A   Mostly Cloudy
8:15 PM 72.9 °F 65.7 °F 78% 29.86 in 10.0 mi Calm Calm - N/A   Scattered Clouds
8:35 PM 69.8 °F 65.7 °F 87% 29.86 in 10.0 mi Calm Calm - N/A   Clear
8:55 PM 69.6 °F 65.7 °F 87% 29.87 in 10.0 mi NNW 3.5 mph - N/A   Clear
9:15 PM 69.1 °F 65.5 °F 88% 29.87 in 10.0 mi Calm Calm - N/A   Clear
9:35 PM 67.1 °F 65.3 °F 94% 29.89 in 10.0 mi WNW 9.2 mph - N/A   Scattered Clouds
9:55 PM 68.7 °F 62.6 °F 81% 29.92 in 10.0 mi NW 9.2 mph - N/A   Overcast
10:15 PM 68.4 °F 63.0 °F 83% 29.93 in 10.0 mi North 3.5 mph - N/A   Overcast
10:35 PM 68.4 °F 61.2 °F 78% 29.93 in 10.0 mi NE 3.5 mph - N/A   Overcast
10:55 PM 67.3 °F 61.2 °F 81% 29.93 in 10.0 mi NW 4.6 mph - N/A   Overcast
11:15 PM 67.5 °F 59.4 °F 75% 29.93 in 10.0 mi North 4.6 mph - N/A   Overcast
11:35 PM 66.2 °F 60.3 °F 81% 29.93 in 10.0 mi West 3.5 mph - N/A   Overcast
11:55 PM 67.1 °F 58.5 °F 74% 29.93 in 10.0 mi NNE 6.9 mph - N/A   Overcast